Time,TemperatureF,DewpointF,PressureIn,WindDirection,WindDirectionDegrees,WindSpeedMPH,WindSpeedGustMPH,Humidity,HourlyPrecipIn,Conditions,Clouds,dailyrainin,SoftwareType,DateUTC
2013-04-17 00:03:00,64.6,60.6,30.00,NE,45,0.0,-999.0,87,-99.99,,,0.00,Acu-Link.com,2013-04-17 04:03:00,
2013-04-17 00:18:00,64.2,60.2,29.99,East,90,0.0,-999.0,87,-99.99,,,0.00,Acu-Link.com,2013-04-17 04:18:00,
2013-04-17 00:34:00,64.0,60.4,29.99,NNE,22,0.0,-999.0,88,-99.99,,,0.00,Acu-Link.com,2013-04-17 04:34:00,
2013-04-17 00:49:00,63.7,60.1,29.99,NNE,22,0.0,-999.0,88,-99.99,,,0.00,Acu-Link.com,2013-04-17 04:49:00,
2013-04-17 01:04:00,63.3,60.0,30.00,South,180,0.0,-999.0,89,-99.99,,,0.00,Acu-Link.com,2013-04-17 05:04:00,
2013-04-17 01:19:00,63.0,59.7,30.00,WSW,247,0.0,-999.0,89,-99.99,,,0.00,Acu-Link.com,2013-04-17 05:19:00,
2013-04-17 01:34:00,62.4,59.7,29.99,ENE,67,0.0,-999.0,91,-99.99,,,0.00,Acu-Link.com,2013-04-17 05:34:00,
2013-04-17 01:49:00,61.9,59.2,29.98,East,90,0.0,-999.0,91,-99.99,,,0.00,Acu-Link.com,2013-04-17 05:49:00,
2013-04-17 02:04:00,61.3,59.0,29.99,NE,45,0.0,-999.0,92,-99.99,,,0.00,Acu-Link.com,2013-04-17 06:04:00,
2013-04-17 02:19:00,61.2,59.2,29.99,NNE,22,0.0,-999.0,93,-99.99,,,0.00,Acu-Link.com,2013-04-17 06:19:00,
2013-04-17 02:34:00,60.4,58.7,29.99,East,90,0.0,-999.0,94,-99.99,,,0.00,Acu-Link.com,2013-04-17 06:34:00,
2013-04-17 02:49:00,60.3,58.9,29.99,East,90,0.0,-999.0,95,-99.99,,,0.00,Acu-Link.com,2013-04-17 06:49:00,
2013-04-17 03:05:00,59.9,58.8,29.98,ENE,67,0.0,-999.0,96,-99.99,,,0.00,Acu-Link.com,2013-04-17 07:05:00,
2013-04-17 03:20:00,59.7,58.6,29.98,SSW,202,0.0,-999.0,96,-99.99,,,0.00,Acu-Link.com,2013-04-17 07:20:00,
2013-04-17 03:35:00,59.4,58.3,29.98,South,180,0.0,-999.0,96,-99.99,,,0.00,Acu-Link.com,2013-04-17 07:35:00,
2013-04-17 03:50:00,59.2,58.1,29.98,West,270,0.0,-999.0,96,-99.99,,,0.00,Acu-Link.com,2013-04-17 07:50:00,
2013-04-17 04:05:00,58.8,57.9,29.98,ENE,67,0.0,-999.0,97,-99.99,,,0.00,Acu-Link.com,2013-04-17 08:05:00,
2013-04-17 04:20:00,58.8,57.9,29.98,East,90,0.0,-999.0,97,-99.99,,,0.00,Acu-Link.com,2013-04-17 08:20:00,
2013-04-17 04:41:00,58.6,58.0,29.98,East,90,0.0,-999.0,98,-99.99,,,0.00,Acu-Link.com,2013-04-17 08:41:00,
2013-04-17 05:11:00,58.1,57.5,30.00,East,90,0.0,-999.0,98,-99.99,,,0.00,Acu-Link.com,2013-04-17 09:11:00,
2013-04-17 05:35:00,58.1,57.5,29.99,East,90,0.0,-999.0,98,-99.99,,,0.00,Acu-Link.com,2013-04-17 09:35:00,
2013-04-17 05:52:00,57.6,57.0,29.99,East,90,0.0,-999.0,98,-99.99,,,0.00,Acu-Link.com,2013-04-17 09:52:00,
2013-04-17 06:08:00,57.4,56.8,30.00,East,90,0.0,-999.0,98,-99.99,,,0.00,Acu-Link.com,2013-04-17 10:08:00,
2013-04-17 06:24:00,57.0,56.4,30.00,East,90,0.0,-999.0,98,-99.99,,,0.00,Acu-Link.com,2013-04-17 10:24:00,
2013-04-17 06:40:00,57.0,56.4,30.01,ESE,112,0.0,-999.0,98,-99.99,,,0.00,Acu-Link.com,2013-04-17 10:40:00,
2013-04-17 16:28:00,85.1,62.0,29.89,NNE,22,1.7,-999.0,46,-99.99,,,0.00,Acu-Link.com,2013-04-17 20:28:00,
2013-04-17 16:43:00,86.5,61.3,29.88,WSW,247,2.7,-999.0,43,-99.99,,,0.00,Acu-Link.com,2013-04-17 20:43:00,
2013-04-17 16:58:00,87.1,61.9,29.88,SW,225,2.2,-999.0,43,-99.99,,,0.00,Acu-Link.com,2013-04-17 20:58:00,
2013-04-17 17:13:00,88.2,63.5,29.89,South,180,0.0,-999.0,44,-99.99,,,0.00,Acu-Link.com,2013-04-17 21:13:00,
2013-04-17 17:29:00,86.0,60.9,29.88,SW,225,1.1,-999.0,43,-99.99,,,0.00,Acu-Link.com,2013-04-17 21:29:00,
2013-04-17 17:44:00,85.3,60.9,29.88,SSE,157,0.0,-999.0,44,-99.99,,,0.00,Acu-Link.com,2013-04-17 21:44:00,
2013-04-17 17:59:00,84.2,61.1,29.89,SSW,202,0.0,-999.0,46,-99.99,,,0.00,Acu-Link.com,2013-04-17 21:59:00,
2013-04-17 18:14:00,82.9,61.8,29.89,SE,135,0.0,-999.0,49,-99.99,,,0.00,Acu-Link.com,2013-04-17 22:14:00,
2013-04-17 18:29:00,82.6,60.9,29.89,SW,225,2.2,-999.0,48,-99.99,,,0.00,Acu-Link.com,2013-04-17 22:29:00,
2013-04-17 18:44:00,81.7,61.2,29.90,SSE,157,0.0,-999.0,50,-99.99,,,0.00,Acu-Link.com,2013-04-17 22:44:00,
2013-04-17 18:59:00,81.0,61.7,29.89,ESE,112,0.0,-999.0,52,-99.99,,,0.00,Acu-Link.com,2013-04-17 22:59:00,
2013-04-17 19:14:00,80.4,61.7,29.90,South,180,0.0,-999.0,53,-99.99,,,0.00,Acu-Link.com,2013-04-17 23:14:00,
2013-04-17 19:29:00,79.0,62.4,29.90,SE,135,0.0,-999.0,57,-99.99,,,0.00,Acu-Link.com,2013-04-17 23:29:00,
2013-04-17 19:45:00,77.9,62.4,29.91,East,90,0.0,-999.0,59,-99.99,,,0.00,Acu-Link.com,2013-04-17 23:45:00,
2013-04-17 20:00:00,76.8,62.3,29.91,East,90,0.0,-999.0,61,-99.99,,,0.00,Acu-Link.com,2013-04-18 00:00:00,
2013-04-17 20:15:00,75.2,62.6,29.92,East,90,0.0,-999.0,65,-99.99,,,0.00,Acu-Link.com,2013-04-18 00:15:00,
2013-04-17 20:30:00,73.8,62.6,29.91,ENE,67,0.0,-999.0,68,-99.99,,,0.00,Acu-Link.com,2013-04-18 00:30:00,
2013-04-17 20:45:00,72.5,62.5,29.91,WSW,247,0.0,-999.0,71,-99.99,,,0.00,Acu-Link.com,2013-04-18 00:45:00,
2013-04-17 21:00:00,71.4,62.7,29.91,ENE,67,0.0,-999.0,74,-99.99,,,0.00,Acu-Link.com,2013-04-18 01:00:00,
2013-04-17 21:15:00,70.5,62.6,29.91,ENE,67,0.0,-999.0,76,-99.99,,,0.00,Acu-Link.com,2013-04-18 01:15:00,
2013-04-17 21:30:00,70.0,62.8,29.92,ENE,67,0.0,-999.0,78,-99.99,,,0.00,Acu-Link.com,2013-04-18 01:30:00,
2013-04-17 21:45:00,70.2,61.9,29.92,SW,225,1.7,-999.0,75,-99.99,,,0.00,Acu-Link.com,2013-04-18 01:45:00,
2013-04-17 22:01:00,70.5,61.8,29.91,SW,225,0.0,-999.0,74,-99.99,,,0.00,Acu-Link.com,2013-04-18 02:01:00,
2013-04-17 22:16:00,70.3,61.6,29.94,SSW,202,0.0,-999.0,74,-99.99,,,0.00,Acu-Link.com,2013-04-18 02:16:00,
2013-04-17 23:16:00,68.7,59.7,29.94,SSE,157,0.0,-999.0,73,-99.99,,,0.00,Acu-Link.com,2013-04-18 03:16:00,
2013-04-17 23:31:00,68.4,59.4,29.93,SSW,202,0.0,-999.0,73,-99.99,,,0.00,Acu-Link.com,2013-04-18 03:31:00,
2013-04-17 23:46:00,67.8,59.2,29.92,WSW,247,1.1,-999.0,74,-99.99,,,0.00,Acu-Link.com,2013-04-18 03:46:00,